TimeCST,TemperatureF,Dew PointF,Humidity,Sea Level PressureIn,VisibilityMPH,Wind Direction,Wind SpeedMPH,Gust SpeedMPH,PrecipitationIn,Events,Conditions,WindDirDegrees,DateUTC
12:15 AM,37.4,33.8,87,29.91,10.0,West,6.9,-,N/A,,Clear,280,2012-12-07 06:15:00
12:35 AM,37.4,33.8,87,29.91,10.0,WNW,6.9,-,N/A,,Clear,290,2012-12-07 06:35:00
12:55 AM,37.4,33.8,87,29.91,10.0,WNW,9.2,-,N/A,,Scattered Clouds,290,2012-12-07 06:55:00
1:15 AM,35.6,32.0,87,29.92,10.0,WNW,6.9,-,N/A,,Scattered Clouds,290,2012-12-07 07:15:00
1:35 AM,35.6,32.0,87,29.92,10.0,WNW,8.1,-,N/A,,Scattered Clouds,300,2012-12-07 07:35:00
1:55 AM,35.6,32.0,87,29.93,10.0,WNW,6.9,-,N/A,,Clear,300,2012-12-07 07:55:00
2:15 AM,35.6,32.0,87,29.93,10.0,WNW,6.9,-,N/A,,Scattered Clouds,300,2012-12-07 08:15:00
2:35 AM,35.6,32.0,87,29.93,10.0,WNW,5.8,-,N/A,,Overcast,300,2012-12-07 08:35:00
2:55 AM,35.6,30.2,81,29.93,10.0,WNW,3.5,-,N/A,,Overcast,290,2012-12-07 08:55:00
3:15 AM,33.8,30.2,87,29.93,10.0,Calm,Calm,-,N/A,,Overcast,0,2012-12-07 09:15:00
3:35 AM,33.8,30.2,87,29.93,10.0,WNW,4.6,-,N/A,,Overcast,290,2012-12-07 09:35:00
3:55 AM,33.8,30.2,87,29.93,10.0,WNW,5.8,-,N/A,,Overcast,290,2012-12-07 09:55:00
4:15 AM,33.8,30.2,87,29.93,10.0,WNW,4.6,-,N/A,,Overcast,300,2012-12-07 10:15:00
4:35 AM,33.8,30.2,87,29.93,10.0,WNW,5.8,-,N/A,,Mostly Cloudy,290,2012-12-07 10:35:00
5:45 AM,33.8,28.4,81,29.94,10.0,NW,6.9,-,N/A,,Mostly Cloudy,320,2012-12-07 11:45:00
6:45 AM,33.8,28.4,81,29.95,10.0,NNW,5.8,-,N/A,,Mostly Cloudy,330,2012-12-07 12:45:00
7:45 AM,33.8,28.4,81,29.97,10.0,NNW,5.8,-,N/A,,Overcast,340,2012-12-07 13:45:00
8:45 AM,33.8,28.4,81,29.97,10.0,North,3.5,-,N/A,,Scattered Clouds,350,2012-12-07 14:45:00
9:45 AM,33.8,28.4,81,29.98,10.0,NNW,3.5,-,N/A,,Scattered Clouds,340,2012-12-07 15:45:00
10:45 AM,35.6,26.6,70,29.97,10.0,ENE,5.8,-,N/A,,Mostly Cloudy,60,2012-12-07 16:45:00
11:45 AM,37.4,28.4,70,29.96,10.0,North,4.6,-,N/A,,Mostly Cloudy,10,2012-12-07 17:45:00
12:45 PM,39.2,30.2,70,29.92,10.0,ENE,6.9,-,N/A,,Mostly Cloudy,70,2012-12-07 18:45:00
1:45 PM,37.4,28.4,70,29.94,10.0,ENE,5.8,-,N/A,,Overcast,60,2012-12-07 19:45:00
2:45 PM,37.4,28.4,70,29.94,10.0,East,5.8,-,N/A,,Overcast,90,2012-12-07 20:45:00
3:45 PM,35.6,30.2,81,29.94,10.0,ENE,6.9,-,N/A,,Overcast,60,2012-12-07 21:45:00
4:45 PM,35.6,30.2,81,29.94,10.0,NE,9.2,-,N/A,,Overcast,40,2012-12-07 22:45:00
5:45 PM,35.6,30.2,81,29.94,10.0,NNE,6.9,-,N/A,,Overcast,30,2012-12-07 23:45:00
7:45 PM,33.8,30.2,87,29.94,10.0,NNE,4.6,-,N/A,,Overcast,20,2012-12-08 01:45:00
8:15 PM,33.8,30.2,87,29.94,10.0,North,5.8,-,N/A,,Overcast,10,2012-12-08 02:15:00
8:45 PM,33.8,28.4,81,29.94,10.0,North,5.8,-,N/A,,Overcast,10,2012-12-08 02:45:00
8:55 PM,33.8,30.2,87,29.93,10.0,NNE,6.9,-,N/A,,Overcast,20,2012-12-08 02:55:00
9:15 PM,32.0,30.2,93,29.92,10.0,NNE,8.1,-,N/A,,Overcast,30,2012-12-08 03:15:00
9:35 PM,32.0,30.2,93,29.93,10.0,North,8.1,-,N/A,,Overcast,10,2012-12-08 03:35:00
9:55 PM,32.0,28.4,87,29.91,10.0,NNE,8.1,-,N/A,,Overcast,20,2012-12-08 03:55:00
10:35 PM,32.0,30.2,93,29.93,10.0,NNW,5.8,-,N/A,,Overcast,340,2012-12-08 04:35:00
10:55 PM,32.0,30.2,93,29.94,10.0,NNW,5.8,-,N/A,,Overcast,340,2012-12-08 04:55:00
11:15 PM,32.0,30.2,93,29.94,10.0,NNW,6.9,-,N/A,,Overcast,330,2012-12-08 05:15:00
11:35 PM,32.0,30.2,93,29.93,10.0,NNW,10.4,-,N/A,,Overcast,340,2012-12-08 05:35:00
11:55 PM,32.0,30.2,93,29.93,10.0,North,12.7,-,N/A,,Overcast,360,2012-12-08 05:55:00